Wind_Speed
15 14 14 13 13 13 12 11 11 11 11 11 11 11 11 11 11 12 12 13 13 14 15 15 16 17 17 17 17 17 17 17 17 18 19 19 19 20 20 20 21 21 22
15 15 15 14 14 13 12 12 12 12 12 12 11 12 12 12 12 12 12 13 14 14 15 16 17 17 17 17 17 17 17 18 19 19 19 19 20 21 22 22 22 23 23
15 15 15 15 14 14 13 13 13 12 12 12 12 12 13 13 13 13 14 14 15 15 16 16 16 17 17 17 17 17 18 19 20 20 21 21 22 22 23 23 24 25 25
16 16 16 16 16 15 15 14 14 13 13 13 13 13 14 14 14 15 15 15 16 16 16 16 17 17 17 18 18 19 19 20 21 22 23 23 23 23 23 24 25 26 26
16 17 17 18 17 16 16 15 15 15 15 15 14 14 14 14 14 15 15 15 16 16 17 17 18 18 18 19 19 20 20 21 22 22 23 23 23 24 25 25 26 27 28
17 18 19 19 19 17 17 17 16 15 15 16 15 15 15 15 15 15 16 16 16 17 18 18 19 19 20 20 20 20 21 22 22 22 23 24 24 24 25 26 27 28 29
18 19 20 20 19 18 18 18 18 16 16 16 17 16 16 17 17 16 17 17 17 18 18 19 20 20 20 20 21 21 22 22 23 23 23 24 25 25 26 27 28 29 29
19 20 20 20 19 19 19 19 18 17 17 18 18 17 17 18 18 18 18 18 19 19 20 21 21 21 21 21 22 22 23 23 23 23 24 24 25 26 27 27 28 29 30
21 21 22 21 20 19 19 20 19 18 18 18 18 18 18 18 18 19 19 19 19 20 20 21 21 21 22 22 23 23 24 24 24 24 25 25 26 26 27 28 29 30 30
22 22 22 21 20 20 20 20 20 20 20 19 19 19 19 19 19 19 20 20 20 20 21 22 22 22 23 23 24 24 24 24 25 25 25 26 27 28 28 29 30 31 31
23 23 22 21 21 20 20 20 21 21 21 20 20 20 20 20 20 20 21 21 21 21 22 23 23 23 24 24 25 25 25 25 25 25 26 27 27 28 29 30 31 31 31
24 23 22 22 21 21 21 21 21 22 22 21 21 20 20 21 21 22 22 22 23 23 24 24 24 25 25 25 25 25 25 25 26 26 27 27 28 29 30 30 31 31 31
23 23 22 22 22 22 22 22 22 22 22 22 21 21 21 22 22 23 23 24 24 24 25 25 25 26 26 26 26 26 26 26 27 27 28 28 29 30 30 31 31 31 30
24 24 23 23 24 24 23 23 22 22 23 22 22 23 23 23 23 24 25 25 25 25 26 26 26 26 27 27 27 27 27 28 28 28 29 29 29 30 30 30 30 30 30
25 25 25 25 25 25 25 24 24 24 24 24 23 23 24 24 24 25 26 26 26 26 27 27 28 28 27 27 28 28 29 29 29 29 30 30 30 30 30 30 30 30 29
26 26 26 27 27 26 26 26 26 26 26 26 25 25 25 26 26 26 27 27 28 28 28 28 29 29 29 28 29 29 29 30 30 30 30 30 30 30 31 31 31 30 30
27 27 27 27 27 27 28 28 28 28 28 27 27 27 27 27 28 28 28 29 29 29 29 30 30 30 30 30 30 30 30 30 30 30 30 31 31 31 31 31 30 30 30
28 28 28 28 28 29 29 29 29 29 28 28 28 29 29 29 29 29 30 30 30 30 30 30 31 31 31 31 31 31 30 30 31 31 31 31 32 32 31 31 31 31 31
29 29 29 29 29 30 30 30 30 29 29 29 29 30 30 30 30 30 31 31 31 31 31 31 31 31 31 31 31 31 31 31 31 31 31 32 31 31 31 31 31 31 32
30 30 30 30 30 31 30 30 30 29 29 30 30 30 30 31 31 32 32 32 31 31 30 30 30 30 31 32 32 32 32 32 32 32 32 32 32 31 31 32 32 32 32
32 32 32 32 32 31 31 30 30 30 30 30 30 31 31 32 32 33 32 32 31 31 30 30 31 31 32 33 33 33 32 32 32 32 32 32 31 31 32 32 31 31 32
33 34 33 33 32 31 31 30 30 30 31 30 30 31 32 32 32 31 31 31 31 31 31 31 31 32 32 33 33 33 32 32 32 32 32 32 32 31 31 31 31 31 31
35 34 34 32 31 31 31 31 31 31 31 31 31 32 32 32 31 31 31 31 31 31 31 32 32 32 33 33 33 33 33 33 32 32 32 32 31 31 31 31 31 31 31
35 34 33 33 33 32 32 32 32 32 32 32 32 32 31 32 32 32 32 31 31 32 32 33 33 33 33 33 33 33 33 32 32 32 32 31 31 31 31 31 31 31 31
34 33 33 33 33 33 33 33 33 33 33 33 33 32 32 32 32 33 33 32 32 33 33 32 33 33 33 33 33 33 33 32 32 32 31 31 31 32 32 32 32 31 31
34 34 33 33 33 33 33 33 33 33 33 33 32 32 32 33 33 33 33 33 33 34 33 33 33 33 32 32 32 32 32 31 31 31 32 32 32 32 32 31 31 31 31
Wind_Direction
351 350 349 347 343 339 338 336 333 328 322 319 314 313 310 309 311 310 311 313 312 309 309 308 308 307 307 307 307 304 303 305 307 307 306 304 306 307 305 305 306 304 305
347 348 347 344 343 339 334 332 332 330 326 322 319 316 316 314 312 313 313 313 313 313 313 312 309 307 308 307 305 305 305 306 307 307 306 306 306 307 306 306 305 305 305
342 343 342 342 343 342 336 330 329 328 326 322 318 315 316 316 315 315 315 314 314 314 316 316 314 311 309 308 306 305 305 305 306 306 306 305 305 306 306 306 307 305 305
335 337 338 338 338 336 335 331 327 325 321 319 316 315 315 314 312 312 312 314 314 313 314 315 315 313 311 309 307 305 304 304 304 304 304 304 304 306 306 306 307 307 306
329 331 333 332 331 330 330 331 333 333 328 324 320 317 316 317 316 316 315 316 316 315 314 314 314 312 310 308 306 305 304 304 303 303 304 304 305 304 305 307 308 307 307
324 325 327 328 328 328 329 329 329 330 330 329 327 324 322 322 321 318 317 316 315 315 314 314 314 313 312 309 308 307 307 306 304 304 305 305 305 305 306 307 308 308 308
320 321 323 324 326 326 324 325 325 327 328 327 325 324 322 320 318 317 316 316 315 315 315 314 314 312 313 313 311 311 311 309 307 305 306 306 305 306 307 307 308 308 308
317 319 320 320 320 322 321 321 323 323 325 324 321 320 318 317 317 317 316 316 315 315 314 314 313 312 313 312 312 312 312 311 309 306 306 306 306 307 307 308 309 309 309
313 314 315 315 315 317 318 320 320 321 323 323 320 318 318 318 318 318 318 316 316 315 315 315 314 314 314 314 313 312 311 311 309 308 306 306 307 308 309 310 310 310 310
309 310 311 311 312 313 315 316 319 320 320 320 318 317 317 317 317 317 317 316 316 316 315 315 315 314 314 315 314 313 311 310 310 309 308 308 309 310 310 310 310 310 310
305 305 306 307 309 311 312 314 317 318 318 318 317 316 315 315 316 316 316 315 315 315 315 315 315 314 315 315 315 314 312 311 311 311 311 310 310 310 310 310 311 310 310
300 301 303 303 305 307 311 312 315 316 316 316 315 314 314 314 314 314 314 314 314 313 313 314 314 314 314 314 314 313 313 313 312 311 311 310 311 311 311 311 311 311 311
298 300 301 303 303 305 307 310 312 312 313 313 312 312 312 312 312 313 313 312 312 312 312 313 313 314 314 314 313 312 312 312 312 312 311 311 311 311 311 312 312 312 312
297 298 298 299 302 303 304 306 309 311 312 312 311 310 310 310 311 311 311 311 311 312 312 313 314 314 313 313 312 312 311 311 311 311 311 311 311 311 312 312 312 312 312
293 295 297 297 298 301 301 304 306 308 310 311 310 311 311 310 310 309 309 310 310 310 311 311 312 311 311 311 311 310 310 309 310 311 311 312 312 312 312 313 312 312 311
290 291 295 296 299 300 300 301 302 305 307 307 308 308 309 309 308 308 308 309 310 310 309 310 310 309 309 309 309 310 310 309 309 310 311 312 312 312 312 313 312 312 311
287 290 293 295 297 298 298 298 300 302 303 304 306 306 307 307 307 307 307 308 308 309 309 309 310 309 309 309 309 309 309 309 309 310 311 311 312 312 312 312 311 311 311
284 287 290 292 294 296 296 297 297 300 301 302 303 304 305 305 306 306 306 307 307 307 308 308 308 308 308 308 308 308 309 310 310 310 310 311 311 311 311 311 311 310 310
283 286 288 290 293 294 295 296 296 297 299 301 301 302 302 303 304 304 306 306 306 305 305 306 306 307 307 307 307 308 308 309 310 310 310 310 311 310 310 310 310 310 311
282 284 286 288 291 293 294 295 296 297 298 298 299 300 301 301 302 303 304 305 305 305 305 305 306 306 307 308 307 307 307 308 310 310 310 310 310 310 309 309 310 311 312
281 284 286 288 289 290 292 293 294 295 296 297 299 299 300 301 301 302 303 304 304 304 305 304 305 306 307 308 307 307 307 308 308 308 308 308 309 309 309 309 310 311 311
279 282 284 287 288 289 290 290 292 295 296 297 298 299 299 300 300 302 303 303 303 303 304 304 305 307 308 309 309 308 308 308 307 307 307 307 307 308 308 309 310 310 311
278 280 282 285 286 287 288 289 291 294 296 296 297 298 299 299 300 302 303 303 304 304 304 304 305 306 308 308 308 308 307 307 306 306 306 306 307 308 308 308 309 309 310
277 278 281 283 284 285 287 288 289 291 294 296 296 296 297 299 300 301 302 303 303 304 304 305 305 307 308 308 307 307 307 307 306 307 306 306 307 308 308 308 308 309 309
275 277 279 282 283 284 286 288 289 290 292 293 294 294 296 297 299 300 301 302 303 303 304 304 306 307 307 306 306 306 306 307 306 306 307 307 308 308 307 307 308 309 309
274 276 278 280 283 284 284 286 288 290 291 292 293 293 294 297 298 299 300 301 302 302 303 304 306 307 306 305 304 305 305 306 306 306 306 307 307 307 307 308 308 308 308
Height
5908 5906 5903 5901 5899 5897 5896 5895 5894 5893 5891 5890 5889 5888 5887 5886 5885 5884 5883 5882 5880 5879 5878 5876 5875 5873 5871 5870 5868 5867 5866 5864 5863 5861 5859 5857 5855 5853 5851 5849 5847 5845 5843
5907 5905 5903 5901 5899 5897 5895 5894 5893 5891 5890 5889 5887 5886 5885 5884 5883 5881 5880 5879 5878 5876 5875 5873 5871 5869 5868 5866 5864 5863 5861 5860 5858 5856 5854 5852 5850 5848 5846 5844 5842 5839 5837
5907 5904 5902 5900 5898 5896 5894 5893 5891 5890 5888 5887 5885 5884 5883 5881 5880 5879 5878 5876 5875 5873 5872 5870 5868 5866 5864 5862 5861 5859 5857 5856 5854 5852 5849 5847 5845 5843 5840 5838 5836 5833 5830
5906 5904 5901 5899 5897 5895 5893 5891 5889 5888 5886 5884 5883 5882 5880 5879 5877 5876 5875 5874 5872 5870 5868 5867 5865 5863 5861 5859 5857 5855 5853 5851 5849 5847 5844 5842 5840 5837 5835 5833 5830 5827 5824
5904 5902 5900 5897 5895 5894 5891 5889 5888 5886 5884 5882 5881 5879 5878 5876 5875 5873 5872 5870 5869 5867 5865 5863 5861 5859 5856 5854 5852 5850 5848 5846 5844 5842 5839 5837 5835 5832 5829 5827 5824 5821 5818
5902 5900 5898 5896 5893 5891 5890 5888 5886 5884 5882 5881 5879 5877 5875 5874 5872 5870 5869 5867 5865 5864 5862 5860 5858 5855 5853 5850 5848 5845 5843 5841 5839 5837 5834 5832 5829 5827 5823 5820 5817 5814 5811
5900 5898 5896 5893 5891 5889 5888 5886 5884 5882 5880 5878 5877 5875 5873 5871 5869 5868 5866 5864 5862 5860 5858 5856 5854 5851 5848 5846 5843 5841 5838 5836 5834 5832 5829 5826 5824 5820 5817 5814 5811 5807 5804
5897 5895 5893 5891 5889 5887 5885 5883 5881 5880 5878 5876 5874 5872 5870 5868 5866 5864 5862 5860 5858 5856 5854 5852 5849 5847 5844 5841 5839 5836 5833 5831 5828 5826 5823 5821 5818 5814 5811 5808 5804 5801 5797
5894 5892 5890 5888 5886 5884 5882 5880 5878 5876 5875 5873 5871 5869 5867 5865 5863 5861 5859 5857 5854 5852 5850 5847 5845 5842 5840 5837 5834 5832 5829 5826 5823 5820 5818 5815 5811 5808 5805 5802 5798 5794 5790
5890 5888 5887 5885 5883 5881 5879 5877 5875 5873 5871 5869 5867 5865 5863 5861 5859 5857 5855 5853 5851 5848 5846 5843 5840 5838 5835 5832 5829 5826 5823 5821 5818 5815 5812 5809 5806 5802 5798 5795 5791 5787 5783
5886 5884 5883 5881 5879 5877 5876 5874 5872 5870 5868 5866 5864 5861 5859 5857 5855 5853 5851 5848 5846 5844 5841 5839 5836 5833 5830 5827 5824 5821 5818 5815 5812 5809 5806 5803 5800 5796 5792 5788 5784 5780 5776
5882 5880 5879 5877 5875 5873 5872 5870 5868 5866 5864 5862 5859 5857 5855 5853 5851 5849 5846 5844 5841 5839 5836 5834 5831 5828 5825 5822 5819 5816 5813 5810 5807 5804 5800 5797 5793 5789 5785 5781 5777 5773 5769
5877 5875 5874 5872 5871 5869 5867 5865 5863 5861 5859 5857 5855 5853 5851 5849 5846 5844 5841 5839 5836 5834 5831 5828 5826 5823 5820 5817 5813 5810 5807 5804 5801 5797 5794 5790 5787 5783 5779 5775 5770 5766 5762
5872 5870 5869 5867 5866 5864 5863 5861 5859 5857 5855 5853 5850 5848 5846 5844 5841 5839 5836 5834 5831 5829 5826 5823 5820 5817 5814 5811 5808 5804 5801 5798 5795 5791 5787 5784 5780 5776 5772 5768 5764 5760 5756
5866 5865 5864 5862 5860 5859 5857 5856 5854 5852 5850 5848 5845 5843 5841 5839 5836 5834 5831 5828 5826 5823 5820 5817 5814 5811 5808 5805 5802 5798 5795 5791 5788 5784 5780 5777 5773 5769 5765 5761 5757 5753 5749
5860 5859 5858 5857 5855 5853 5851 5850 5848 5846 5844 5842 5840 5838 5835 5833 5830 5828 5825 5822 5819 5817 5814 5811 5808 5804 5801 5798 5795 5792 5788 5784 5780 5777 5773 5769 5766 5762 5758 5754 5750 5746 5742
5854 5853 5852 5850 5849 5847 5845 5844 5842 5840 5838 5835 5833 5831 5829 5826 5824 5821 5818 5816 5813 5810 5807 5804 5801 5797 5794 5791 5788 5784 5781 5777 5773 5769 5766 5762 5758 5754 5750 5747 5743 5739 5735
5847 5846 5845 5843 5842 5840 5839 5837 5835 5833 5831 5829 5826 5824 5822 5819 5817 5814 5811 5809 5806 5803 5800 5797 5793 5790 5787 5783 5780 5777 5773 5770 5766 5762 5758 5755 5751 5747 5743 5739 5735 5731 5728
5840 5839 5837 5836 5834 5833 5831 5829 5827 5825 5823 5821 5819 5817 5815 5812 5809 5807 5804 5801 5798 5795 5792 5789 5786 5782 5779 5776 5772 5769 5765 5762 5758 5755 5751 5747 5743 5739 5735 5732 5728 5724 5720
5832 5831 5829 5828 5827 5825 5823 5821 5819 5818 5816 5814 5812 5809 5807 5805 5802 5799 5796 5793 5790 5787 5784 5781 5778 5775 5771 5768 5765 5761 5757 5754 5750 5747 5743 5740 5736 5732 5728 5724 5720 5716 5713
5824 5823 5821 5820 5818 5816 5815 5813 5811 5810 5808 5806 5804 5802 5800 5797 5794 5791 5788 5785 5782 5779 5776 5773 5770 5767 5764 5760 5756 5753 5749 5746 5742 5739 5735 5732 5728 5724 5720 5716 5712 5709 5705
5815 5814 5812 5811 5810 5808 5806 5805 5804 5802 5800 5798 5796 5794 5791 5789 5786 5783 5780 5777 5774 5771 5768 5765 5762 5759 5756 5752 5748 5745 5741 5738 5734 5731 5727 5724 5720 5716 5712 5709 5705 5701 5697
5806 5805 5804 5802 5801 5800 5798 5797 5795 5794 5792 5790 5788 5785 5783 5780 5778 5775 5773 5770 5767 5764 5760 5757 5754 5751 5747 5744 5740 5737 5733 5730 5726 5723 5719 5716 5712 5708 5705 5701 5697 5694 5690
5796 5795 5795 5794 5792 5791 5790 5788 5787 5785 5783 5781 5779 5777 5775 5772 5770 5767 5764 5762 5759 5756 5753 5749 5746 5742 5739 5736 5732 5728 5725 5721 5718 5714 5711 5707 5704 5700 5696 5693 5689 5686 5682
5787 5786 5786 5784 5783 5782 5781 5780 5778 5776 5775 5773 5771 5769 5766 5764 5761 5759 5756 5753 5750 5748 5744 5741 5738 5734 5731 5727 5724 5720 5717 5713 5709 5706 5702 5699 5696 5692 5688 5685 5681 5678 5674
5777 5777 5776 5775 5774 5773 5772 5771 5769 5768 5766 5764 5762 5760 5758 5756 5753 5750 5748 5745 5742 5739 5736 5733 5729 5726 5722 5719 5715 5712 5708 5705 5702 5698 5694 5691 5688 5684 5680 5676 5673 5669 5666